Weather History for Cut Bank, MT

Change the Weather History Date:

Saturday, February 9, 2013

  Actual Average Record
Temperature  
Mean Temperature 33 °F 23 °F  
Max Temperature 46 °F 34 °F 57 °F (1970)
Min Temperature 19 °F 12 °F -40 °F (1939)
Degree Days  
Heating Degree Days 32 42  
Month to date heating degree days 239 378  
Since 1 July heating degree days 4982 5296  
Cooling Degree Days 0 0  
Month to date cooling degree days 0 0  
Year to date cooling degree days 0 0  
Moisture  
Dew Point 23 °F    
Average Humidity 65    
Maximum Humidity 92    
Minimum Humidity 37    
Precipitation  
Precipitation T in 0.01 in 0.26 in (1955)
Month to date precipitation T 0.06  
Year to date precipitation 0.42 0.26  
Snow  
Snow 0.00 in - - ()
Snow Depth 0.00 in    
Sea Level Pressure  
Sea Level Pressure 29.94 in    
Wind  
Wind Speed 11 mph (NW)    
Max Wind Speed 31 mph    
Max Gust Speed 37 mph    
Visibility 5 miles    
Events Fog , Snow    
T = Trace of Precipitation, MM = Missing Value Source: NWS Daily Summary

Daily Weather History Graph

Daily Weather History Graph

Search for Another Location

Airport:

Trip Planner

Search our weather history database for the weather conditions in past years. The results will help you decide how hot, cold, wet, or windy it might be!

Date:

Astronomy

Feb. 09, 2013 Rise Set
Actual Time 7:46 AM MST 5:41 PM MST
Civil Twilight 7:13 AM MST 6:14 PM MST
Nautical Twilight 6:36 AM MST 6:51 PM MST
Astronomical Twilight 6:00 AM MST 7:28 PM MST
Moon 6:59 AM MST (2/9) 5:31 PM MST (2/9)
Length of Visible Light 11h 00m
Length of Day
9h 55m
Waning Crescent, 0% of the Moon is Illuminated
Feb 9
Waning Crescent
Feb 10
New
Feb 17
First Quarter
Feb 25
Full
Mar 4
Last Quarter

Hourly Weather History & Observations

Time (MST) Temp. Windchill Dew Point Humidity Pressure Visibility Wind Dir Wind Speed Gust Speed Precip Events Conditions
12:56 AM 19.9 °F 9.3 °F 12.9 °F 74% 29.96 in 10.0 mi WNW 9.2 mph - N/A   Clear
1:56 AM 21.0 °F 9.9 °F 15.1 °F 78% 29.92 in 10.0 mi WNW 10.4 mph - N/A   Clear
2:56 AM 21.0 °F 12.4 °F 15.1 °F 78% 29.92 in 10.0 mi West 6.9 mph - N/A   Clear
3:56 AM 24.1 °F 14.4 °F 16.0 °F 71% 29.89 in 10.0 mi WNW 9.2 mph - N/A   Clear
4:56 AM 21.9 °F 14.5 °F 15.1 °F 75% 29.89 in 10.0 mi WNW 5.8 mph - N/A   Clear
5:56 AM 23.0 °F 13.9 °F 16.0 °F 74% 29.92 in 10.0 mi West 8.1 mph - N/A   Clear
6:56 AM 21.9 °F 12.5 °F 15.1 °F 75% 29.92 in 10.0 mi West 8.1 mph - N/A   Clear
7:56 AM 23.0 °F 13.9 °F 15.1 °F 72% 29.92 in 10.0 mi West 8.1 mph - N/A   Clear
8:56 AM 30.9 °F 26.2 °F 19.0 °F 61% 29.90 in 10.0 mi West 4.6 mph - N/A   Clear
9:56 AM 34.0 °F - 21.9 °F 61% 29.90 in 10.0 mi Calm Calm - N/A   Scattered Clouds
10:56 AM 45.0 °F 38.2 °F 19.9 °F 37% 29.85 in 10.0 mi WSW 15.0 mph - N/A   Partly Cloudy
11:56 AM 39.9 °F 32.5 °F 17.1 °F 40% 29.88 in 10.0 mi West 12.7 mph - N/A   Overcast
12:56 PM 32.0 °F 19.5 °F 24.1 °F 73% 29.93 in 4.0 mi NNW 21.9 mph 32.2 mph 0.00 in Snow Light Snow
1:25 PM 30.2 °F 17.8 °F 26.6 °F 86% 29.83 in 1.8 mi NNW 19.6 mph - 0.00 in Snow Light Snow
1:33 PM 30.2 °F 18.5 °F 26.6 °F 86% 29.83 in 0.8 mi NNW 17.3 mph - 0.00 in Snow Light Snow
1:41 PM 30.2 °F 18.5 °F 26.6 °F 86% 29.83 in 1.0 mi NNW 17.3 mph - 0.00 in Snow Light Snow
1:49 PM 30.2 °F 19.3 °F 26.6 °F 86% 29.83 in 0.8 mi North 15.0 mph - 0.00 in Snow Light Snow
1:56 PM 30.0 °F 19.5 °F 28.0 °F 92% 29.95 in 0.5 mi North 13.8 mph - 0.00 in Fog , Snow Snow
2:03 PM 28.4 °F 17.0 °F 26.6 °F 93% 29.84 in 0.2 mi North 15.0 mph - 0.00 in Fog , Snow Snow
2:23 PM 28.4 °F 18.5 °F 28.4 °F 100% 29.84 in 0.5 mi North 11.5 mph - 0.00 in Fog , Snow Snow
2:49 PM 30.2 °F 20.8 °F 28.4 °F 93% 29.84 in 1.5 mi North 11.5 mph - 0.00 in Snow Light Snow
2:56 PM 30.0 °F 20.0 °F 28.0 °F 92% 29.96 in 1.0 mi North 12.7 mph - 0.00 in Snow Light Snow
3:21 PM 30.2 °F 21.3 °F 28.4 °F 93% 29.85 in 3.0 mi NNW 10.4 mph - 0.00 in Snow Light Snow
3:30 PM 30.2 °F 20.8 °F 28.4 °F 93% 29.86 in 1.8 mi NNW 11.5 mph - 0.00 in Snow Light Snow
3:38 PM 30.2 °F 21.3 °F 28.4 °F 93% 29.86 in 1.2 mi NNW 10.4 mph - 0.00 in Snow Light Snow
3:56 PM 30.0 °F 21.7 °F 28.9 °F 96% 29.98 in 1.8 mi NNW 9.2 mph - 0.00 in Snow Light Snow
4:05 PM 30.2 °F 21.3 °F 28.4 °F 93% 29.87 in 2.5 mi NNW 10.4 mph - 0.00 in Snow Light Snow
4:17 PM 30.2 °F 20.8 °F 28.4 °F 93% 29.87 in 1.0 mi North 11.5 mph - 0.00 in Snow Light Snow
4:19 PM 30.2 °F 20.8 °F 28.4 °F 93% 29.87 in 0.8 mi North 11.5 mph - 0.00 in Snow Light Snow
4:28 PM 30.2 °F 20.8 °F 28.4 °F 93% 29.88 in 2.5 mi NNW 11.5 mph - 0.00 in Snow Light Snow
4:35 PM 30.2 °F 20.8 °F 28.4 °F 93% 29.88 in 5.0 mi NW 11.5 mph - 0.00 in Snow Light Snow
4:56 PM 30.9 °F 20.2 °F 27.0 °F 85% 30.00 in 7.0 mi North 15.0 mph - 0.00 in Snow Light Snow
5:07 PM 30.2 °F 18.1 °F 26.6 °F 86% 29.89 in 10.0 mi NNW 18.4 mph - 0.00 in   Overcast
5:56 PM 28.0 °F 16.5 °F 25.0 °F 88% 30.04 in 10.0 mi North 15.0 mph - 0.00 in   Mostly Cloudy
6:48 PM 26.6 °F 17.5 °F 24.8 °F 93% 29.95 in 10.0 mi NNW 9.2 mph - N/A   Mostly Cloudy
6:56 PM 26.1 °F 15.6 °F 23.0 °F 88% 30.08 in 10.0 mi NNW 11.5 mph - N/A   Mostly Cloudy
7:03 PM 26.6 °F 16.2 °F 23.0 °F 86% 29.95 in 10.0 mi NNW 11.5 mph - N/A   Scattered Clouds
7:56 PM 19.9 °F 6.2 °F 18.0 °F 92% 30.11 in 10.0 mi NW 15.0 mph - N/A   Clear
8:56 PM 19.9 °F 6.7 °F 17.1 °F 89% 30.10 in 10.0 mi NW 13.8 mph - N/A   Scattered Clouds
9:41 PM 21.2 °F 7.3 °F 17.6 °F 86% 29.99 in 10.0 mi NW 16.1 mph - 0.00 in   Mostly Cloudy
9:56 PM 24.1 °F 11.5 °F 21.0 °F 88% 30.10 in 2.5 mi NW 15.0 mph - 0.00 in Snow Light Snow
10:01 PM 24.8 °F 12.9 °F 21.2 °F 86% 30.00 in 3.0 mi NW 13.8 mph - 0.00 in Snow Light Snow
10:25 PM 26.6 °F 15.7 °F 24.8 °F 93% 30.01 in 4.0 mi NNW 12.7 mph - 0.00 in Snow Light Snow
10:32 PM 26.6 °F 15.7 °F 24.8 °F 93% 30.01 in 1.8 mi NNW 12.7 mph - 0.00 in Snow Light Snow
10:40 PM 26.6 °F 15.2 °F 24.8 °F 93% 30.01 in 1.0 mi NNW 13.8 mph - 0.00 in Snow Light Snow
10:42 PM 26.6 °F 15.7 °F 24.8 °F 93% 30.01 in 0.8 mi NNW 12.7 mph - 0.00 in Snow Light Snow
10:56 PM 27.0 °F 15.2 °F 25.0 °F 92% 30.08 in 1.0 mi NNW 15.0 mph - 0.00 in Snow Light Snow
11:06 PM 26.6 °F 14.7 °F 24.8 °F 93% 30.02 in 3.0 mi NW 15.0 mph - 0.00 in Snow Light Snow
11:14 PM 26.6 °F 14.3 °F 24.8 °F 93% 30.02 in 8.0 mi NW 16.1 mph - 0.00 in Snow Light Snow
11:46 PM 26.6 °F 15.2 °F 24.8 °F 93% 30.02 in 1.8 mi NW 13.8 mph - 0.00 in Snow Light Snow
11:56 PM 26.1 °F 15.0 °F 25.0 °F 96% 30.11 in 1.0 mi NW 12.7 mph - 0.00 in Snow Light Snow